Terminal Aerodrome Forecast
Issued by NWS Mt. Holly, NJ

Home | Current Version | Previous Version | Text Only | Print | Product List | Glossary On
Versions: 1 2 3 4 5 6 7 8 9 10 11 12 13 14 15 16 17 18 19 20 21 22 23
000
FTUS41 KPHI 251100
TAFTTN
TAF
KTTN 251136Z 2512/2612 28006KT P6SM SKC
     FM251700 29012G22KT P6SM FEW040
     FM252300 22006KT P6SM SCT050
     FM260300 28010KT P6SM BKN050=

USA.gov is the U.S. government's official web portal to all federal, state and local government web resources and services.